./positionSamplePrinter parameters:
topic suffix: ins
#time, x, y, z, r, p, y
listening to topic: rapid_position_sample-ins
waiting for Ctrl-C
1349540466.745877, 4098887.23538, 669291.616166, 344.959494221, -0.00625053746626, -0.0679637119174, -0.366701904927
1349540466.846735, 4098887.27582, 669291.60708, 344.957360274, -0.00792559701949, -0.0659528449178, -0.367658440267
1349540466.954862, 4098887.32149, 669291.587387, 344.944686546, -0.0143054332584, -0.0575162507594, -0.363155666982
1349540467.049927, 4098887.3685, 669291.562683, 344.936897978, -0.0150000937283, -0.0540503412485, -0.362742249166
1349540467.148002, 4098887.42013, 669291.552661, 344.930872691, -0.00716416211799, -0.0466746129096, -0.356359783803
1349540467.245876, 4098887.48638, 669291.540388, 344.930965278, -0.00924951583147, -0.0455309674144, -0.332216564809
1349540467.346858, 4098887.55738, 669291.505326, 344.923756718, -0.022521097213, -0.0395645685494, -0.317101780568
1349540467.461861, 4098887.63564, 669291.472521, 344.921123272, -0.0207319185138, -0.0413056090474, -0.312306229268
1349540467.546829, 4098887.7146, 669291.463732, 344.913523097, -0.0162717234343, -0.0415126606822, -0.291219536458
1349540467.647795, 4098887.79874, 669291.452703, 344.91981127, -0.0100801344961, -0.0408611521125, -0.270630661641
1349540467.746865, 4098887.87736, 669291.4271, 344.912913539, -0.0167094934732, -0.0349754840136, -0.253553692495
1349540467.845875, 4098887.95603, 669291.392151, 344.914412419, -0.0244874879718, -0.0355492196977, -0.233903233205
1349540467.956876, 4098888.0397, 669291.369206, 344.91055145, -0.0273278411478, -0.037151362747, -0.219477001821
1349540468.045882, 4098888.12401, 669291.361289, 344.906632598, -0.0228346642107, -0.0287474505603, -0.206526104604
1349540468.144954, 4098888.21492, 669291.350303, 344.905722976, -0.0207793265581, -0.0284007899463, -0.19356471697
1349540468.246816, 4098888.30721, 669291.330834, 344.906961478, -0.0199960842729, -0.0298986174166, -0.185693089162
1349540468.346842, 4098888.39886, 669291.312803, 344.909590289, -0.0216396022588, -0.0249327924103, -0.185233894979
1349540468.462735, 4098888.49625, 669291.287091, 344.907086955, -0.0339720882475, -0.0167874339968, -0.183264557515
1349540468.546800, 4098888.6071, 669291.252477, 344.910007563, -0.0335339643061, -0.0166381336749, -0.187949482595
1349540468.645814, 4098888.72702, 669291.226849, 344.898886034, -0.0342999584973, -0.00690222438425, -0.185917202626
1349540468.746804, 4098888.86686, 669291.209277, 344.911463759, -0.0282616000623, -0.0140419630334, -0.177592102681
1349540468.846892, 4098889.02181, 669291.181791, 344.899263024, -0.0322198718786, -0.0180445108563, -0.175902191793
1349540468.955736, 4098889.18453, 669291.15406, 344.893433747, -0.0291622448713, -0.0111841885373, -0.176549259816
1349540469.045746, 4098889.35032, 669291.124666, 344.893314304, -0.0298711247742, -0.00451244693249, -0.172033611928
1349540469.145734, 4098889.52281, 669291.097095, 344.894482292, -0.0257524121553, -0.00971466209739, -0.171669308339
1349540469.245986, 4098889.68986, 669291.075063, 344.893690697, -0.0169642791152, -0.00556887499988, -0.176663223897
1349540469.346027, 4098889.83621, 669291.044723, 344.899160296, -0.0264498908073, 0.00206135446206, -0.17332870165
1349540469.461485, 4098889.97277, 669291.007459, 344.896027379, -0.0330159068108, 0.0118782743812, -0.165585819875
1349540469.546818, 4098890.13376, 669290.993202, 344.90391137, -0.0163332913071, 0.002805178985, -0.163718048726
1349540469.645809, 4098890.302, 669290.98058, 344.919308498, -0.0161471068859, 0.00631993357092, -0.151302639638
1349540469.746756, 4098890.47092, 669290.946584, 344.906529358, -0.0283219628036, 0.00386795331724, -0.123537842427
1349540469.845989, 4098890.62692, 669290.910355, 344.913729478, -0.0376613996923, -0.000365642190445, -0.0944927374469
1349540469.955861, 4098890.76795, 669290.89178, 344.911316046, -0.0388606525958, 0.0151531212032, -0.0623858610736
1349540470.045828, 4098890.91265, 669290.895382, 344.910168163, -0.026416040957, 0.0227882470936, -0.0306871573078
1349540470.146744, 4098891.06293, 669290.895134, 344.911380644, -0.0296149160713, 0.0204609762877, 0.00868365820497
1349540470.245747, 4098891.21451, 669290.892725, 344.918772674, -0.0289583206177, 0.0206262841821, 0.0450062602758
1349540470.344780, 4098891.36462, 669290.895151, 344.925657554, -0.0321774370968, 0.0194099713117, 0.0802052021027
1349540470.461687, 4098891.50706, 669290.908143, 344.924492734, -0.0246541835368, 0.0261922329664, 0.116069681942
1349540470.549956, 4098891.64798, 669290.939233, 344.930513222, -0.0112626291811, 0.0266924649477, 0.152488350868
1349540470.645793, 4098891.79199, 669290.974801, 344.937852207, -0.00410105986521, 0.0261430498213, 0.191052496433
1349540470.745798, 4098891.94421, 669290.987953, 344.942958215, -0.0221133101732, 0.0228150617331, 0.230038419366
1349540470.846933, 4098892.09837, 669291.004271, 344.940734854, -0.0220452547073, 0.0201945826411, 0.267393410206
1349540470.955793, 4098892.23316, 669291.045096, 344.939007085, -0.0149483084679, 0.0285730902106, 0.312717229128
1349540471.047129, 4098892.37177, 669291.099462, 344.943880144, -0.0140361627564, 0.0214872378856, 0.348922580481
1349540471.147004, 4098892.51528, 669291.149279, 344.947741963, -0.0189377907664, 0.0143827693537, 0.386138945818
1349540471.245877, 4098892.65098, 669291.196671, 344.952821969, -0.0166495703161, 0.020056726411, 0.427247166634
1349540471.344923, 4098892.77773, 669291.251897, 344.964276663, -0.0158057007939, 0.0201580990106, 0.462082087994
1349540471.463744, 4098892.89888, 669291.315779, 344.96579958, -0.0143778901547, 0.0183369852602, 0.495351582766
1349540471.545806, 4098893.01908, 669291.387423, 344.973208701, -0.0106189884245, 0.0224262699485, 0.532073557377
1349540471.646822, 4098893.14811, 669291.461916, 344.975828023, -0.0108746793121, 0.0217192899436, 0.568672418594
1349540471.745922, 4098893.27618, 669291.544706, 344.986343825, -0.00811711512506, 0.0222490094602, 0.594159126282
1349540471.844901, 4098893.39848, 669291.638113, 344.995109706, 0.00280935573392, 0.0308396238834, 0.608860135078
1349540471.956865, 4098893.53504, 669291.734261, 344.993562556, -0.00710438331589, 0.0248953588307, 0.616664469242
1349540472.047949, 4098893.67607, 669291.820796, 344.991202449, -0.0136686693877, 0.0312625728548, 0.621158719063
1349540472.145846, 4098893.82377, 669291.91859, 344.996021939, -0.0210731774569, 0.0251454934478, 0.610257863998
1349540472.245921, 4098893.96549, 669292.023268, 344.989275504, -0.0154534522444, 0.0198810882866, 0.593172848225
1349540472.345835, 4098894.0964, 669292.114011, 345.003411586, -0.0152488676831, 0.0206458605826, 0.572242796421
1349540472.463813, 4098894.2247, 669292.196707, 344.999926544, -0.0160933211446, 0.0163969825953, 0.542582094669
1349540472.545792, 4098894.33994, 669292.276015, 345.003887894, -0.0180385224521, 0.0159444622695, 0.506154417992
1349540472.646837, 4098894.4578, 669292.336046, 344.997934269, -0.022424178198, 0.0143596092239, 0.478823840618
1349540472.745966, 4098894.56571, 669292.387377, 345.006838508, -0.0234586410224, 0.010574313812, 0.450580239296
1349540472.846007, 4098894.66406, 669292.437831, 345.00581412, -0.0221225582063, 0.00742062926292, 0.428079605103
1349540472.956938, 4098894.76052, 669292.48761, 345.00965617, -0.02119086124, 0.00452792970464, 0.417844384909
1349540473.048924, 4098894.86548, 669292.530011, 345.009909295, -0.0234314706177, 0.00189648522064, 0.409666180611
1349540473.145940, 4098894.97465, 669292.577756, 345.014376975, -0.0207867957652, -0.00201312522404, 0.404594480991
1349540473.245948, 4098895.08405, 669292.630926, 345.028190154, -0.0191888064146, -0.0101974168792, 0.403469622135
1349540473.344805, 4098895.18968, 669292.678831, 345.024977897, -0.0160683467984, 0.00254152785055, 0.398666411638
1349540473.460808, 4098895.30076, 669292.733035, 345.02593531, -0.00857835263014, 0.00235259532928, 0.393811166286
1349540473.546743, 4098895.4205, 669292.793118, 345.042093351, -0.00162494846154, 0.0097255827859, 0.391117185354
1349540473.647877, 4098895.57817, 669292.840427, 345.032732614, -0.0183007083833, -0.00685532251373, 0.38571074605
1349540473.747755, 4098895.74412, 669292.891042, 345.037792891, -0.0196946524084, -0.00479906145483, 0.385357916355
1349540473.846873, 4098895.91066, 669292.954282, 345.030210442, -0.0167997702956, -0.00280075939372, 0.381334245205
1349540473.956849, 4098896.07193, 669293.02635, 345.040719504, -0.0147391911596, -0.00723215844482, 0.38376519084
1349540474.045795, 4098896.23396, 669293.09155, 345.033708556, -0.014205865562, -0.00881924014539, 0.381881803274
1349540474.146763, 4098896.39848, 669293.148157, 345.037354621, -0.0136321010068, -0.00641260109842, 0.380185186863
1349540474.247756, 4098896.55997, 669293.208739, 345.034344477, -0.0181521587074, -0.00548789743334, 0.382696002722
1349540474.346900, 4098896.72138, 669293.271014, 345.038535857, -0.0165497157723, -0.0106572983786, 0.382314711809
1349540474.462335, 4098896.88283, 669293.335514, 345.038124252, -0.0165663417429, -0.0103782303631, 0.380472123623
1349540474.545879, 4098897.04643, 669293.429341, 345.046211591, -0.00140229123645, -0.0187420304865, 0.380864322186
1349540474.645940, 4098897.20736, 669293.495453, 345.03837985, -0.00620506843552, -0.0109850205481, 0.385796755552
1349540474.745918, 4098897.37085, 669293.550655, 345.033966211, -0.00874305982143, -0.012074011378, 0.379930227995
1349540474.845845, 4098897.52703, 669293.600931, 345.035363308, -0.0168258603662, -0.00664104893804, 0.379528462887
1349540474.954983, 4098897.68297, 669293.666965, 345.031128024, -0.012347525917, -0.00431919982657, 0.381597787142
1349540475.046840, 4098897.84946, 669293.733677, 345.033747477, -0.0136641990393, -0.0144721502438, 0.382378518581
1349540475.146791, 4098898.00872, 669293.793593, 345.029061878, -0.0129192695022, -0.00957554206252, 0.37770986557
1349540475.246796, 4098898.16145, 669293.854618, 345.02809448, -0.0108769536018, -0.009561765939, 0.368014007807
1349540475.345986, 4098898.30573, 669293.909671, 345.035704323, -0.0118952421471, -0.00916141830385, 0.355932533741
1349540475.462485, 4098898.45068, 669293.964443, 345.033349129, -0.00767240580171, -0.00789160747081, 0.343323796988
1349540475.546962, 4098898.61623, 669294.033845, 345.021529399, -0.0120048457757, -0.00667176861316, 0.332615971565
1349540475.646926, 4098898.77911, 669294.086211, 345.01939241, -0.0116399545223, -0.0132378796116, 0.319119691849
1349540475.746922, 4098898.93428, 669294.136329, 345.01833784, -0.0135679123923, -0.0161094460636, 0.31084433198
1349540475.847849, 4098899.08239, 669294.177155, 345.015238874, -0.0175410807133, -0.0113465897739, 0.29957011342
1349540475.954860, 4098899.22734, 669294.226854, 345.024479036, -0.00925332959741, -0.0093696359545, 0.279632210732
1349540476.047131, 4098899.38211, 669294.272886, 345.010141912, -0.015769097954, -0.0162807647139, 0.264021039009
1349540476.145798, 4098899.53382, 669294.300022, 345.01988333, -0.0158759672195, -0.00670958543196, 0.246720194817
1349540476.246790, 4098899.69051, 669294.320116, 345.009607715, -0.029854375869, -0.0108900656924, 0.226628556848
1349540476.345997, 4098899.84334, 669294.358533, 345.013407731, -0.0173966027796, -0.0146434493363, 0.214538216591
1349540476.462974, 4098899.99215, 669294.395517, 345.007880496, -0.0188605412841, -0.00909604784101, 0.198615461588
1349540476.547001, 4098900.17868, 669294.432014, 344.996962163, -0.0187059286982, -0.00816433876753, 0.182533234358
1349540476.646802, 4098900.34118, 669294.465253, 344.990910601, -0.0104170581326, -0.0208038762212, 0.176063403487
1349540476.746918, 4098900.50574, 669294.496493, 344.990038384, -0.0134319458157, -0.0199577156454, 0.170803770423
1349540476.847085, 4098900.67066, 669294.51758, 344.983160282, -0.0170811992139, -0.0183142255992, 0.162269592285
1349540476.960884, 4098900.83309, 669294.542187, 344.987381527, -0.0140346772969, -0.019614521414, 0.15958610177
1349540477.045804, 4098900.99374, 669294.566385, 344.973831224, -0.0155704114586, -0.0141246188432, 0.161145508289
1349540477.146042, 4098901.15999, 669294.593052, 344.995324359, -0.00664332555607, -0.0211361162364, 0.158825516701
1349540477.247076, 4098901.32388, 669294.607217, 344.974691403, -0.0239712782204, -0.0142783811316, 0.159364581108
1349540477.344914, 4098901.49042, 669294.620707, 344.991389817, -0.0187052749097, -0.0134120304137, 0.158246323466
1349540477.465856, 4098901.65786, 669294.634623, 344.976106073, -0.0286395158619, -0.0138104083017, 0.160152003169
1349540477.544814, 4098901.89766, 669294.66498, 344.911017957, -0.0264665521681, -0.00748685887083, 0.159841760993
1349540477.646791, 4098902.06189, 669294.695871, 344.909266825, -0.0175217501819, -0.0129749905318, 0.15824355185
1349540477.747959, 4098902.23101, 669294.711088, 344.894420844, -0.0310944709927, -0.0115241594613, 0.159662097692
1349540477.846990, 4098902.40207, 669294.728314, 344.899581742, -0.0278020519763, -0.0128531837836, 0.159677162766
1349540477.960931, 4098902.56467, 669294.755677, 344.889697513, -0.0202725082636, -0.00907016545534, 0.158139690757
1349540478.047803, 4098902.72778, 669294.78659, 344.897985705, -0.0220620259643, -0.0114743653685, 0.157357156277
1349540478.145882, 4098902.89215, 669294.813651, 344.890877607, -0.0177226401865, -0.00987282022834, 0.15515999496
1349540478.245875, 4098903.06848, 669294.828279, 344.89142852, -0.0220779813826, -0.0164488330483, 0.156693667173
1349540478.345971, 4098903.24256, 669294.846513, 344.888470308, -0.027597874403, -0.0175794418901, 0.159882500768
1349540478.464821, 4098903.40889, 669294.877272, 344.889718664, -0.0189707130194, -0.0200244057924, 0.156260818243
1349540478.546805, 4098903.60121, 669294.953258, 344.902549416, -0.0221308395267, -0.0227851867676, 0.155253618956
1349540478.645801, 4098903.77166, 669294.967915, 344.905709826, -0.0284306984395, -0.0252560451627, 0.155696883798
1349540478.746849, 4098903.9372, 669294.992638, 344.90469119, -0.0231252927333, -0.0222704354674, 0.157186567783
1349540478.846898, 4098904.10381, 669295.009508, 344.895679301, -0.0320435501635, -0.0210423562676, 0.156487256289
1349540478.960866, 4098904.26963, 669295.025949, 344.898759788, -0.0339267104864, -0.0193833298981, 0.155865848064
1349540479.046729, 4098904.43759, 669295.054896, 344.892953486, -0.0258887521923, -0.0196592267603, 0.156758531928
1349540479.146950, 4098904.60976, 669295.089009, 344.889983811, -0.0214457139373, -0.0253996215761, 0.155871450901
1349540479.245986, 4098904.77884, 669295.113039, 344.888937669, -0.0224431548268, -0.0238707084209, 0.155489042401
1349540479.345931, 4098904.94461, 669295.132328, 344.883967238, -0.0226210672408, -0.0243857689202, 0.156682804227
1349540479.464679, 4098905.10916, 669295.157427, 344.883878641, -0.0204521585256, -0.0237471573055, 0.156461492181
1349540479.546929, 4098905.31624, 669295.227244, 344.866431613, -0.0199794303626, -0.0203513037413, 0.159337192774
1349540479.645923, 4098905.48078, 669295.25172, 344.865060981, -0.0172149930149, -0.0197063945234, 0.158501505852
1349540479.746925, 4098905.63831, 669295.281054, 344.867134877, -0.0114452876151, -0.0178272873163, 0.156794697046
1349540479.846798, 4098905.8095, 669295.299434, 344.855754098, -0.0230673160404, -0.0230585541576, 0.160447135568
1349540479.960897, 4098905.98301, 669295.317234, 344.863047126, -0.0221311133355, -0.0241385120898, 0.160177052021
1349540480.047852, 4098906.15038, 669295.33925, 344.853390449, -0.0240652281791, -0.0205998234451, 0.163111314178
1349540480.145735, 4098906.3156, 669295.364247, 344.858977552, -0.0278048496693, -0.0216235984117, 0.16345885396
1349540480.246728, 4098906.47535, 669295.38784, 344.849198882, -0.0240345876664, -0.0135735655203, 0.163013130426
1349540480.345810, 4098906.64408, 669295.416505, 344.847407721, -0.0205139890313, -0.0159374065697, 0.162526547909
1349540480.466848, 4098906.81321, 669295.448543, 344.844364039, -0.0160863455385, -0.0214118231088, 0.162311509252
1349540480.549826, 4098907.01906, 669295.523546, 344.843559696, -0.0164418667555, -0.0176355373114, 0.163142859936
1349540480.646742, 4098907.18534, 669295.540868, 344.841493287, -0.0202905926853, -0.0190702676773, 0.165018603206
1349540480.746747, 4098907.3529, 669295.566441, 344.843249323, -0.0208074692637, -0.0194351486862, 0.164162874222
1349540480.846825, 4098907.51853, 669295.595256, 344.843824539, -0.0181929264218, -0.0152285639197, 0.166637316346
1349540480.963388, 4098907.68373, 669295.608772, 344.836061278, -0.0268193874508, -0.0128974094987, 0.164161086082
1349540481.048125, 4098907.84553, 669295.629387, 344.840485676, -0.0269153676927, -0.0116740399972, 0.164560854435
1349540481.146780, 4098908.01154, 669295.660331, 344.832885333, -0.0218427050859, -0.013090165332, 0.162710890174
1349540481.245762, 4098908.18184, 669295.684425, 344.836631424, -0.0266591403633, -0.0146280601621, 0.16309350729
1349540481.345734, 4098908.34879, 669295.702, 344.833744529, -0.0271611977369, -0.0110807130113, 0.1638084203
1349540481.465992, 4098908.50763, 669295.729705, 344.834193066, -0.0206157304347, -0.00672264536843, 0.160376131535
1349540481.546833, 4098908.71265, 669295.791642, 344.86999732, -0.0152284335345, -0.000704232777935, 0.162864968181
1349540481.645795, 4098908.88047, 669295.81356, 344.863033872, -0.0185988992453, -0.00120739790145, 0.163218408823
1349540481.745806, 4098909.05479, 669295.821821, 344.866455404, -0.0318690985441, -0.00521613750607, 0.162970125675
1349540481.845948, 4098909.22699, 669295.835197, 344.859266145, -0.0381508693099, -0.00541332596913, 0.16611982882
1349540481.961920, 4098909.397, 669295.855825, 344.865515178, -0.0410082265735, -0.00972858257592, 0.166147530079
1349540482.047041, 4098909.5634, 669295.884625, 344.859529284, -0.0357873998582, -0.010510395281, 0.162721082568
1349540482.146987, 4098909.72311, 669295.91703, 344.864494599, -0.0318250246346, -0.00516348285601, 0.165050953627
1349540482.245845, 4098909.89029, 669295.945993, 344.854340496, -0.0267215780914, -0.0131984055042, 0.164119809866
1349540482.345915, 4098910.05582, 669295.969826, 344.86037491, -0.0266917664558, -0.00874585192651, 0.165679737926
1349540482.468853, 4098910.22795, 669295.990947, 344.852777818, -0.0322229266167, -0.00964727904648, 0.168220177293
1349540482.548880, 4098910.44654, 669296.070857, 344.887718097, -0.0252985786647, -0.0183370318264, 0.166824743152
1349540482.647199, 4098910.61042, 669296.10656, 344.88332524, -0.0228070709854, -0.0154158743098, 0.167650833726
1349540482.746828, 4098910.7771, 669296.132507, 344.886570226, -0.0208059791476, -0.0176152680069, 0.166299119592
1349540482.845863, 4098910.93772, 669296.149497, 344.885578328, -0.0268455948681, -0.00699063204229, 0.164695039392
1349540482.961863, 4098911.09968, 669296.16726, 344.885876457, -0.032975140959, -0.00523835048079, 0.163489788771
1349540483.046803, 4098911.25992, 669296.176425, 344.886818671, -0.0455964505672, -0.00136155996006, 0.166850015521
1349540483.146032, 4098911.43319, 669296.204465, 344.877718599, -0.0319031178951, -0.0156858935952, 0.165786296129
1349540483.245821, 4098911.60256, 669296.237567, 344.879934989, -0.0354466997087, -0.0122223887593, 0.168628543615
1349540483.345878, 4098911.76394, 669296.264865, 344.876729173, -0.0260137896985, -0.00206108693965, 0.166182592511
1349540483.467792, 4098911.92555, 669296.281568, 344.882119467, -0.0353650040925, -0.00543785747141, 0.166161432862
1349540483.545831, 4098912.09608, 669296.333514, 344.847655899, -0.0382800549269, 0.00491804769263, 0.169647663832
1349540483.645978, 4098912.25969, 669296.350355, 344.851078516, -0.0436797328293, 0.00763623788953, 0.169501766562
1349540483.746911, 4098912.4338, 669296.370368, 344.845556607, -0.051182076335, 0.000168848491739, 0.171691045165
1349540483.847956, 4098912.60338, 669296.402664, 344.847832195, -0.039065502584, 0.00112396059558, 0.167047455907
1349540483.962815, 4098912.76904, 669296.438955, 344.850770595, -0.0358539707959, -0.00127769494429, 0.167340710759
1349540484.046793, 4098912.93769, 669296.469045, 344.851718785, -0.0300406999886, -0.00503935385495, 0.169428214431
1349540484.146832, 4098913.11186, 669296.486565, 344.84698387, -0.0415583886206, -0.0126114590093, 0.163876563311
1349540484.245820, 4098913.27263, 669296.522152, 344.836561057, -0.0239884406328, -0.00333138997667, 0.163026303053
1349540484.349925, 4098913.41936, 669296.538441, 344.84779715, -0.0452940501273, 0.00390761112794, 0.181522682309
1349540484.466798, 4098913.57629, 669296.565739, 344.840706972, -0.0329392440617, -0.00874294992536, 0.179751396179
1349540484.548795, 4098913.76714, 669296.634457, 344.857675325, -0.0342739187181, -0.00325134349987, 0.169298917055
1349540484.646814, 4098913.95007, 669296.663015, 344.869750413, -0.035009264946, -0.0208791978657, 0.177207291126
1349540484.746028, 4098914.11689, 669296.684686, 344.867716313, -0.0420569702983, -0.0184810925275, 0.17329415679
1349540484.846899, 4098914.25247, 669296.709564, 344.886730109, -0.0314292535186, 0.00460289465263, 0.157920911908
1349540484.960831, 4098914.37847, 669296.749674, 344.898240689, -0.0143847437575, 0.0222037937492, 0.148101344705
1349540485.045926, 4098914.54611, 669296.773377, 344.883331598, -0.022062998265, 1.55225225171e-05, 0.15829564631
1349540485.146923, 4098914.72455, 669296.788319, 344.873023609, -0.0240125376731, 0.00428979378194, 0.161954417825
1349540485.246858, 4098914.91715, 669296.817128, 344.869749091, -0.0226630158722, -0.00849218480289, 0.154214188457
1349540485.346846, 4098915.08564, 669296.839301, 344.8603212, -0.0172467101365, -0.00266756000929, 0.152837440372
1349540485.474866, 4098915.24405, 669296.85135, 344.865921062, -0.0363474003971, -0.0187706891447, 0.1459223032
1349540485.546738, 4098915.46392, 669296.900797, 344.868636637, -0.0294524654746, -0.00959707703441, 0.136808425188
1349540485.645775, 4098915.63127, 669296.926819, 344.867510832, -0.0322998128831, -0.0155166927725, 0.137049213052
1349540485.745540, 4098915.78396, 669296.941831, 344.877558489, -0.0388604477048, -0.00657181581482, 0.133450493217
1349540485.846826, 4098915.9482, 669296.956701, 344.865678025, -0.0339049845934, -0.0132509088144, 0.129245504737
1349540485.969807, 4098916.13605, 669296.975905, 344.862834088, -0.0402400866151, -0.041364222765, 0.127143442631
1349540486.045825, 4098916.31451, 669297.024844, 344.887117106, -0.00529624288902, -0.0596072673798, 0.117342166603
1349540486.146919, 4098916.4822, 669297.056912, 344.878536191, -0.00845318287611, -0.0557749792933, 0.111087113619
1349540486.246869, 4098916.62523, 669297.054673, 344.861183376, -0.0313093736768, -0.0308003872633, 0.100957371294
1349540486.346835, 4098916.77145, 669297.045251, 344.880074839, -0.0278692450374, -0.034721493721, 0.105929605663
1349540486.474057, 4098916.91277, 669297.024623, 344.860966091, -0.0561145842075, -0.0177035387605, 0.105150490999
1349540486.546827, 4098917.15874, 669296.891363, 344.797371386, -0.045501139015, -0.0136862481013, 0.0920690819621
1349540486.646863, 4098917.33346, 669296.903442, 344.768001366, -0.0417187288404, -0.0253110677004, 0.073343038559
1349540486.745878, 4098917.501, 669296.911393, 344.783573458, -0.0436462983489, -0.0176041368395, 0.0676697939634
1349540486.846865, 4098917.67318, 669296.923969, 344.764284118, -0.0407863892615, -0.0324548669159, 0.0621495097876
1349540486.969825, 4098917.83433, 669296.922792, 344.775476419, -0.0474988892674, -0.0336306206882, 0.050534594804
1349540487.045868, 4098917.98875, 669296.92433, 344.745154181, -0.0426726602018, -0.0253358539194, 0.0394874364138
1349540487.145845, 4098918.13728, 669296.91406, 344.750381039, -0.055186714977, -0.0215430110693, 0.0242082010955
1349540487.246794, 4098918.28198, 669296.912233, 344.743505072, -0.0474221818149, -0.0190147906542, 0.00228829169646
1349540487.347320, 4098918.43524, 669296.894304, 344.747009085, -0.0630892142653, -0.016817484051, -0.0129092375385